Location: Herm
(49.4830°N, 2.4500°W)
Time: 10:05:25
(UTC+00:00)

N. Korean satellite - Visible Passes

Search period start: 14 December 2017 00:00
Search period end: 24 December 2017 00:00
Orbit: 461 x 513 km, 97.2° (Epoch: 13 December)

Date Brightness Start Highest point End Pass type
(mag) Time Alt. Az. Time Alt. Az. Time Alt. Az.
14 Dec 9.8 06:02:59 10° NE 06:05:31 17° E 06:08:01 10° SE visible
14 Dec 8.3 16:43:59 10° E 16:46:07 15° ENE 16:48:15 10° NNE visible
14 Dec 7.2 18:15:31 10° S 18:19:10 59° W 18:22:55 10° NNW visible
15 Dec 6.6 07:12:00 10° N 07:15:45 80° WNW 07:19:25 10° SSW visible
15 Dec 6.5 17:51:54 10° SSE 17:55:37 74° ENE 17:59:23 10° N visible
15 Dec 10.2 19:28:45 10° W 19:29:37 11° W 19:30:30 10° WNW visible
16 Dec 7.5 06:48:29 10° NNE 06:52:10 54° E 06:55:45 10° S visible
16 Dec 7.1 17:28:36 10° SE 17:32:07 40° ENE 17:35:41 10° N visible
16 Dec 9.5 19:03:07 10° SW 19:05:49 19° W 19:08:32 10° NW visible
17 Dec 8.8 06:25:12 10° NNE 06:28:30 29° E 06:31:43 10° SSE visible
17 Dec 7.8 17:05:40 10° ESE 17:08:42 24° ENE 17:11:45 10° NNE visible
17 Dec 8.5 18:38:41 10° SSW 18:42:04 32° W 18:45:30 10° NNW visible
18 Dec 9.8 06:02:16 10° NE 06:04:44 17° E 06:07:10 10° SE visible
18 Dec 8.3 16:43:13 10° E 16:45:21 15° ENE 16:47:29 10° NNE visible
18 Dec 7.2 18:14:43 10° S 18:18:25 60° W 18:22:10 10° NNW visible
19 Dec 6.6 07:11:14 10° N 07:14:58 81° WNW 07:18:36 10° SSW visible
19 Dec 6.5 17:51:06 10° SSE 17:54:50 74° ENE 17:58:37 10° N visible
19 Dec 10.2 19:27:51 10° WSW 19:28:50 11° W 19:29:50 10° WNW visible
20 Dec 7.5 06:47:43 10° NNE 06:51:22 53° E 06:54:54 10° S visible
20 Dec 7.1 17:27:48 10° SE 17:31:20 40° ENE 17:34:53 10° N visible
20 Dec 9.5 19:02:17 10° SW 19:05:01 19° W 19:07:45 10° NW visible
21 Dec 8.8 06:24:25 10° NNE 06:27:41 29° E 06:30:51 10° SSE visible
21 Dec 7.8 17:04:52 10° ESE 17:07:54 23° ENE 17:10:56 10° NNE visible
21 Dec 8.5 18:37:51 10° SSW 18:41:16 33° W 18:44:43 10° NNW visible
22 Dec 9.8 06:01:31 10° NE 06:03:55 16° E 06:06:16 10° SE visible
22 Dec 7.2 18:13:53 10° S 18:17:36 61° W 18:21:21 10° NNW visible
23 Dec 6.5 07:10:27 10° N 07:14:08 82° WNW 07:17:43 10° SSW visible
23 Dec 6.5 17:50:16 10° SSE 17:54:01 73° ENE 17:57:47 10° N visible
23 Dec 10.2 19:26:55 10° WSW 19:28:00 11° W 19:29:04 10° WNW visible
